Tracking 18843 objects as of 21-November-2017
HD Live streaming from Space Station
objects crossing your sky now

FENGYUN 1C DEB

Track FENGYUN 1C DEB now!
10-day predictions


NORAD ID: 38165
Int'l Code: 1999-025ERN
Perigee: 789.5 km
Apogee: 836.0 km
Inclination: 99.1 °
Period: 101.0 minutes
Semi major axis: 7183 km
RCS: 0.006 m2 (small)
Launch date: May 10, 1999
Source: People's Republic of China (PRC)
Launch site: Taiyaun Space Center, China (TSC)

Note: This is SATELLITE DEBRIS
aabbcc
Your satellite tracking list
Your tracking list is empty




NASA's NSSDC Master Catalog

Two Line Element Set (TLE):
1 38165U 99025ERN 17319.15236681 +.00000899 +00000-0 +39537-3 0  9997
2 38165 099.0681 096.1517 0032365 168.1712 192.0234 14.25863206304759
Source of the keplerian elements: AFSPC